Theta_e
293 293 293 293 294 294 295 296 296 297 297 298 299 299 300 301 302 301 302 303 305 305 305 305 304 301 300 299 297 297 297 297 296 296 297 297 298 299 300 300 301 302 302 304 304 303 304 304 305 305 305 305 304 303 304 305 306 307 306 304 304 302 301 303 303 305 306 307 308 308 308 307 305 303 303 305 305 304 303 303 302 302 302 302 302
292 293 292 293 293 294 295 295 295 296 295 296 297 298 298 300 300 300 301 301 302 302 302 301 300 300 299 297 296 296 296 296 295 295 295 296 296 297 298 298 299 299 300 301 301 302 302 302 302 302 303 303 303 303 303 302 304 305 307 305 305 303 300 301 302 304 304 301 301 302 304 306 305 303 303 304 304 303 304 303 302 303 302 302 303
291 291 292 292 293 293 294 294 294 294 295 295 296 298 298 299 299 300 301 301 301 301 301 299 299 299 298 296 295 294 294 295 294 294 294 294 294 295 295 296 297 297 298 298 299 300 300 300 300 300 301 301 301 300 301 301 301 302 303 304 303 303 301 301 301 302 299 301 303 302 301 299 303 301 303 303 301 304 304 301 302 303 302 302 302
291 291 291 291 292 293 293 293 293 294 294 295 295 296 297 298 298 299 299 299 299 298 297 297 297 297 297 296 296 295 293 294 294 294 293 293 292 293 293 294 294 295 296 296 297 297 298 298 299 299 299 300 299 298 298 298 299 300 301 301 303 301 300 299 301 301 300 299 297 298 298 298 297 299 297 302 302 303 301 301 302 301 299 299 300
291 291 291 291 292 291 291 291 292 293 293 293 293 294 295 296 297 298 298 298 298 297 297 296 296 295 295 295 296 295 295 294 293 291 291 291 291 291 291 292 293 293 293 294 294 295 296 296 297 297 297 298 298 297 296 297 297 298 299 299 300 299 298 299 299 299 299 300 298 297 297 297 295 295 297 300 301 300 300 300 300 299 297 296 298
291 291 291 291 291 291 291 291 292 292 291 291 292 293 295 296 296 297 297 297 297 298 299 299 297 296 296 295 294 292 290 290 288 288 289 289 288 290 290 291 291 291 292 292 292 292 293 293 294 294 294 294 295 295 295 295 295 296 297 297 297 298 296 295 296 298 297 298 299 298 297 293 292 293 294 290 296 299 298 299 298 297 296 295 297
290 290 290 290 290 291 290 291 291 291 290 291 291 292 293 294 295 296 296 296 296 296 297 297 296 295 294 293 292 291 288 288 289 289 289 289 290 289 289 290 290 290 290 291 291 291 292 292 292 292 292 292 292 292 291 291 292 293 294 294 295 296 295 292 293 294 293 294 297 297 297 297 297 292 287 288 285 291 295 295 295 295 295 295 295
291 290 290 290 290 290 290 289 289 289 289 290 291 291 292 292 294 294 294 294 294 295 294 295 293 293 292 291 290 289 288 287 288 288 289 289 289 289 289 288 289 290 289 290 290 290 290 290 291 291 290 291 290 290 290 291 291 291 291 291 291 292 293 291 291 292 289 290 293 293 293 295 296 295 294 289 287 284 286 291 293 293 294 295 295
291 290 289 289 289 289 289 289 288 289 289 289 289 290 291 291 292 292 292 292 292 292 293 293 293 292 291 290 289 289 289 288 289 289 289 289 288 288 288 288 288 288 289 289 289 289 289 289 290 289 289 289 289 290 290 290 290 290 290 290 291 291 291 291 290 289 290 289 290 290 290 290 291 292 292 291 287 286 285 286 286 291 292 292 292
290 290 290 289 289 288 288 288 288 288 288 289 289 290 290 291 290 290 290 290 291 291 291 291 291 291 290 290 288 288 288 288 289 288 288 289 288 288 288 288 287 287 287 288 288 288 288 288 288 288 288 287 287 288 288 289 289 289 289 289 290 289 290 290 289 290 290 290 290 290 288 288 288 288 288 288 288 289 285 285 286 285 284 287 291
290 289 289 289 288 288 287 288 287 287 288 288 289 289 290 290 289 289 289 289 290 290 290 290 290 291 290 290 289 288 289 288 288 288 288 288 287 287 287 287 287 286 287 287 287 287 287 287 287 287 287 286 286 286 286 286 287 288 288 288 288 288 288 289 289 289 289 289 289 288 288 287 287 286 286 287 286 285 285 285 286 286 285 285 288
289 289 288 288 287 287 287 286 287 287 287 287 288 288 289 289 289 288 288 288 289 289 289 289 290 290 290 290 289 289 289 289 288 288 288 287 287 286 287 287 286 287 286 286 286 287 286 286 286 286 286 286 286 286 286 286 287 287 287 287 286 286 287 287 287 286 287 287 287 287 287 288 288 287 287 287 287 286 285 284 284 286 286 286 288
289 289 288 288 287 287 286 286 286 286 287 287 287 288 288 289 288 288 287 288 288 289 289 289 289 289 289 289 289 289 289 289 288 288 288 287 287 287 287 286 286 285 285 285 285 285 286 285 285 285 285 286 286 286 286 286 286 286 286 286 285 285 285 286 285 285 285 285 285 287 287 287 286 287 287 287 287 287 286 283 285 286 283 284 287
290 289 289 288 288 287 287 286 286 286 286 287 287 287 288 288 288 287 287 288 288 288 288 288 288 289 289 289 289 289 288 288 288 287 287 287 287 286 286 285 285 284 284 284 285 285 285 285 285 285 285 285 285 285 285 285 285 285 284 284 284 284 285 285 284 284 285 285 285 285 285 286 286 287 286 287 286 285 284 284 283 284 285 284 286
290 289 289 288 288 288 287 287 286 286 286 286 287 287 288 288 287 287 287 287 288 288 288 288 288 288 288 288 288 288 288 287 287 287 286 286 286 285 285 285 285 285 284 285 285 285 285 285 285 285 285 285 285 285 285 285 285 285 285 284 284 284 284 284 284 284 284 284 284 284 284 285 285 285 285 286 286 286 285 284 283 281 282 283 283
290 289 289 289 288 288 287 287 286 286 286 286 286 287 288 288 287 287 287 287 288 288 288 288 288 288 288 287 287 287 287 287 286 286 286 286 286 285 284 285 285 285 285 285 284 285 284 284 284 284 284 284 284 283 284 284 284 284 283 283 283 283 283 283 283 283 283 283 283 284 284 284 285 284 285 285 285 285 285 285 284 283 281 278 282
290 290 289 289 288 287 287 287 286 286 286 286 286 287 288 287 287 287 287 287 288 288 288 288 288 287 287 287 287 287 287 286 285 285 285 286 286 285 285 285 285 285 284 284 284 284 283 284 284 283 283 283 283 283 283 283 283 283 283 283 282 282 282 282 282 282 282 282 282 282 282 283 283 284 283 284 284 284 285 285 285 283 283 280 278
291 290 290 289 288 288 288 287 287 286 286 286 286 287 288 288 287 287 286 286 287 287 287 287 287 287 286 287 287 287 287 286 286 285 286 286 286 285 285 285 284 284 284 284 284 283 283 282 282 282 282 283 282 282 282 282 283 283 282 282 282 282 282 282 282 282 282 282 282 282 282 282 283 282 283 283 283 283 283 283 284 284 284 281 280
290 290 290 289 288 288 288 287 287 287 286 286 287 287 287 287 287 287 287 287 287 287 287 287 287 287 287 286 286 286 286 286 286 286 286 286 285 285 284 284 284 284 283 283 283 282 282 282 282 282 282 282 282 282 282 282 282 282 282 282 282 281 281 281 282 281 281 282 281 281 282 281 282 282 282 282 283 283 283 283 282 283 283 282 281
291 290 290 289 289 289 288 287 286 286 286 286 286 286 286 287 287 287 287 287 286 286 286 286 286 286 286 286 286 286 286 285 285 285 285 285 284 284 284 283 283 283 283 283 282 282 282 282 282 281 281 281 281 281 281 281 281 281 281 281 280 280 280 280 281 281 281 281 281 280 281 281 281 281 281 282 282 282 282 282 282 282 282 282 282
291 291 290 289 289 289 288 287 287 287 287 286 286 286 286 287 286 286 286 285 285 285 285 285 285 285 284 284 284 284 284 284 284 285 284 283 284 284 284 284 283 283 283 282 282 282 282 282 281 281 281 281 281 280 281 281 281 280 280 279 279 279 279 279 280 279 280 280 280 279 280 280 281 280 281 281 281 281 281 282 282 282 281 282 281
292 291 290 289 289 289 288 287 287 286 286 285 286 286 286 286 286 286 286 285 285 285 285 285 285 284 284 284 284 284 284 283 283 283 282 282 282 282 282 283 282 282 282 282 282 282 281 281 281 280 280 280 280 280 280 280 279 279 279 280 279 278 278 278 279 279 279 280 279 279 279 280 280 280 280 279 280 280 280 280 280 280 280 280 281
292 290 289 289 289 289 287 286 286 286 286 285 285 286 286 286 286 286 285 285 285 285 285 285 284 284 284 284 283 283 282 282 282 282 282 283 283 282 283 282 282 282 282 281 281 280 280 280 280 280 280 279 279 279 279 279 278 278 278 278 278 278 278 278 278 278 278 279 279 279 279 279 280 278 279 279 279 279 280 279 279 279 279 279 280
290 290 289 289 289 289 287 286 285 285 285 285 285 286 286 286 286 286 285 285 285 285 284 284 284 283 283 282 282 282 281 282 282 283 282 283 282 282 282 281 281 281 281 280 280 279 279 279 279 279 279 278 278 278 278 278 278 277 277 277 277 277 278 278 278 278 278 278 278 278 278 278 278 277 277 278 278 278 278 278 278 278 278 278 279
289 289 289 289 289 288 287 286 286 285 286 285 285 286 286 286 286 285 285 285 284 285 284 284 284 283 282 282 282 282 283 283 283 283 282 282 282 282 281 281 280 280 280 280 279 279 278 278 278 278 277 277 277 277 277 277 277 277 277 277 277 277 277 277 278 278 278 278 277 277 277 277 277 276 277 277 277 277 277 277 277 277 277 278 278
289 289 289 288 288 288 288 287 286 286 286 286 286 286 286 286 285 285 285 285 284 284 283 283 283 282 282 283 283 283 283 283 283 283 282 282 282 281 281 280 279 279 279 278 278 278 278 277 277 277 277 277 277 277 276 276 276 276 276 276 277 277 277 277 278 278 278 278 277 277 277 277 276 276 276 276 276 276 276 276 276 276 277 277 277
288 289 289 289 288 288 288 288 286 286 286 286 286 286 286 285 285 285 285 285 284 283 283 283 283 283 283 283 283 283 283 283 283 283 282 282 281 280 279 279 278 278 278 277 277 277 277 277 276 276 276 276 276 276 276 276 276 275 276 276 277 277 277 277 277 277 277 277 277 277 277 276 276 276 275 275 276 276 275 276 276 276 276 276 276
288 288 288 288 288 288 288 288 287 286 286 286 286 286 286 285 284 284 284 284 284 284 283 283 283 283 283 283 283 283 283 283 283 282 282 281 280 279 278 278 277 277 276 276 276 276 276 276 276 276 275 275 275 275 275 275 275 275 276 277 277 277 277 277 277 277 277 277 277 277 276 276 276 276 276 276 276 275 276 275 276 275 275 275 274
287 288 288 288 288 288 288 288 288 287 286 286 286 286 285 285 285 285 285 284 284 284 283 283 283 283 283 284 283 283 283 283 282 281 281 280 279 278 277 277 276 276 276 276 275 275 274 275 275 274 274 274 274 274 274 274 274 276 277 277 277 277 276 276 276 277 277 277 276 276 276 276 276 276 276 276 276 276 274 273 274 275 274 274 273
287 287 288 288 288 288 288 288 288 287 286 286 285 285 285 285 285 285 285 284 284 283 283 283 282 282 283 283 283 282 282 282 281 281 280 279 278 277 276 275 275 275 275 275 274 274 274 274 273 273 273 273 273 274 273 273 274 276 277 277 276 276 276 276 275 275 276 276 276 276 276 276 275 275 275 275 275 275 275 275 274 274 273 273 272
288 288 288 288 288 288 288 288 287 287 287 286 286 286 286 285 285 285 285 284 284 283 282 282 282 283 283 283 282 282 282 281 281 280 279 278 276 275 275 275 274 274 273 273 273 273 273 273 273 272 272 272 272 272 272 274 275 276 276 276 276 275 276 276 275 275 275 275 276 276 275 275 274 274 274 274 274 275 275 275 276 276 275 273 271
288 288 288 288 288 287 287 287 287 288 288 287 287 287 286 285 285 285 285 284 283 283 283 283 283 283 283 282 282 282 281 281 280 279 277 276 275 274 274 273 273 272 272 272 272 272 272 272 272 272 271 271 272 272 272 274 275 276 277 276 276 275 275 275 275 275 275 275 275 274 274 274 274 273 273 273 273 274 274 274 274 274 275 275 275
289 288 288 288 288 288 288 288 288 288 288 289 289 287 286 286 285 285 285 284 283 283 283 283 283 283 283 282 282 282 281 280 279 277 276 274 273 273 272 272 271 272 271 271 271 271 271 271 271 270 270 271 271 271 272 273 274 276 276 276 275 275 274 274 275 274 274 274 273 273 273 273 273 273 273 273 273 272 273 273 273 274 274 274 274
289 289 289 289 289 289 289 288 288 288 288 289 289 288 288 287 286 286 285 284 283 283 284 283 283 283 283 283 282 281 280 279 278 276 274 273 272 272 272 272 271 270 270 270 271 270 270 270 270 269 269 270 270 270 271 273 274 275 276 276 275 274 274 274 274 274 273 273 272 272 272 272 273 273 273 273 272 272 272 272 272 272 272 273 274
288 288 288 289 289 288 288 287 287 287 287 287 287 288 288 287 286 285 285 284 284 284 284 284 284 283 283 282 281 280 280 278 276 274 273 273 272 272 271 271 270 270 270 269 269 269 269 268 268 268 268 268 268 270 271 273 274 274 275 276 274 274 273 273 273 272 272 272 272 272 272 271 272 272 273 273 272 272 272 271 271 271 272 272 273
289 289 289 288 287 287 287 286 287 286 285 286 286 286 286 286 286 285 284 284 284 283 283 284 283 283 282 281 280 279 279 276 274 273 272 272 271 271 270 270 269 270 269 269 269 268 267 266 267 266 266 267 268 270 270 272 273 274 275 274 273 272 271 271 271 272 272 272 272 272 271 271 271 272 273 274 274 273 272 272 271 272 272 273 273
290 289 289 289 288 287 286 285 285 285 284 284 285 285 285 284 284 284 284 283 283 282 283 283 282 282 281 280 280 279 277 275 273 272 271 272 271 270 269 269 268 269 269 268 268 267 267 266 265 265 265 266 267 268 269 271 272 273 273 271 271 271 271 270 271 271 271 272 272 272 272 271 271 271 273 275 276 276 273 272 272 272 273 273 273
288 287 286 285 285 284 284 284 284 284 284 284 284 284 284 283 282 283 282 282 282 282 282 282 282 282 280 280 279 278 276 274 272 272 271 271 271 270 269 268 268 267 268 267 267 266 265 265 264 264 264 264 265 267 269 270 271 272 272 271 271 270 270 270 270 271 272 272 272 272 273 272 271 272 274 275 277 276 274 273 273 272 272 272 273
287 286 286 285 284 284 283 283 283 283 283 283 283 283 282 282 282 281 281 281 281 282 282 282 282 282 281 279 277 277 275 273 272 271 270 270 269 268 268 267 266 267 266 266 265 265 265 264 264 263 264 265 265 266 267 269 270 271 272 271 271 270 269 269 270 270 271 271 271 272 273 274 273 274 276 277 277 276 274 274 274 273 272 272 274
283 284 285 284 283 282 282 282 283 284 283 282 282 282 281 282 281 281 280 280 281 282 283 283 282 280 278 276 275 274 274 272 271 270 269 269 268 267 266 266 266 266 266 266 265 264 263 263 264 263 262 263 263 264 264 268 270 271 272 271 271 270 269 269 270 270 270 271 271 272 273 275 275 276 277 277 278 278 275 275 275 274 273 273 275
283 282 282 282 283 284 284 284 285 285 282 281 281 281 281 281 280 279 279 281 282 282 282 281 279 276 275 273 273 272 271 270 270 268 268 266 267 267 265 264 264 265 264 264 263 263 262 263 263 263 263 263 263 263 264 268 269 271 272 272 271 270 270 270 270 270 270 270 271 272 273 274 276 276 277 277 278 278 278 276 276 275 275 276 277
281 281 281 281 282 283 284 284 283 282 280 280 280 281 281 280 278 278 280 282 281 280 279 277 275 274 272 270 269 269 269 267 266 266 265 264 265 265 264 263 264 264 262 261 262 262 263 263 264 263 263 263 264 265 265 267 269 271 272 273 271 271 271 271 271 271 272 271 272 272 273 274 276 276 277 278 279 279 279 276 276 278 279 278 275
281 280 281 281 281 281 282 283 282 280 279 279 280 280 280 278 278 279 281 279 278 276 275 274 272 270 268 267 267 265 264 263 263 264 264 264 263 262 261 262 262 262 261 261 261 262 262 263 263 264 264 263 263 263 266 266 269 271 272 273 273 273 274 273 272 271 271 271 273 273 273 275 276 277 278 279 278 278 276 275 277 278 277 277 276
282 283 282 281 282 282 282 282 281 278 278 278 279 279 279 277 278 281 277 274 274 273 272 271 269 268 266 265 264 263 263 262 262 262 262 263 262 262 261 262 262 262 263 263 264 264 263 263 263 264 264 264 264 264 266 268 268 270 272 273 274 274 275 273 273 272 272 273 272 272 273 276 277 278 277 276 276 275 274 275 276 275 275 274 271
281 281 281 280 281 282 282 282 281 277 277 277 278 279 278 276 280 277 274 272 271 270 269 268 267 266 264 264 262 262 261 261 261 262 262 262 261 260 262 262 261 262 263 264 265 264 263 264 264 263 264 264 265 265 266 267 269 271 272 273 273 274 274 275 273 273 273 273 274 276 277 277 276 275 275 274 272 272 273 273 273 273 271 269 268
280 280 279 279 280 281 281 281 281 277 276 275 276 278 278 278 279 275 273 270 268 267 267 267 266 265 264 262 261 261 260 260 261 262 263 264 263 261 263 264 263 263 263 263 264 264 263 263 263 263 264 264 265 266 267 267 269 270 271 272 273 274 274 274 274 273 275 276 276 275 275 274 273 272 270 268 268 268 270 270 270 269 267 267 267
279 280 279 278 278 278 278 279 280 279 275 274 274 276 278 280 275 273 271 269 267 268 267 267 265 264 263 261 262 262 261 260 260 261 262 263 263 263 263 263 263 263 263 263 263 262 263 263 263 264 264 264 265 266 267 268 269 270 270 271 272 272 273 273 273 273 273 272 272 272 271 272 270 270 269 268 268 267 266 266 266 267 266 266 266
281 281 279 278 277 278 278 279 279 281 277 274 273 273 275 275 272 271 268 267 267 268 268 266 265 264 263 261 263 261 261 262 260 261 262 262 262 262 263 263 264 264 264 264 263 263 263 263 263 264 264 264 265 266 267 268 269 270 271 272 272 271 272 272 272 271 271 271 269 269 268 266 265 265 264 264 265 265 265 265 265 265 265 265 266
279 278 276 277 278 277 278 278 279 281 279 275 273 273 273 272 270 268 267 267 268 267 268 266 265 264 263 262 263 263 263 263 262 260 262 263 262 262 262 262 262 263 264 264 264 264 263 263 263 263 263 264 265 266 267 271 271 273 272 271 271 271 272 272 272 273 270 268 267 265 264 264 263 263 263 263 263 264 264 264 263 264 265 265 265
280 279 276 276 277 277 277 277 278 279 277 275 273 272 271 270 268 266 266 267 268 267 267 266 264 263 263 262 262 262 262 262 262 262 260 260 260 264 263 262 262 263 265 267 266 264 264 265 264 265 266 265 266 267 271 272 273 273 273 273 274 274 274 273 272 271 268 265 264 263 263 262 262 262 262 262 262 262 262 262 263 264 264 264 264
278 276 275 274 276 276 276 276 277 277 276 274 273 271 269 267 267 266 266 267 268 267 267 266 263 263 263 262 262 262 261 262 261 262 261 261 262 262 266 267 267 266 267 269 270 271 271 271 268 267 269 272 272 273 273 273 272 272 273 273 274 274 273 272 271 267 265 263 262 262 262 262 262 262 262 261 261 261 261 261 262 262 263 263 264
Wind_Speed
2 2 3 3 3 4 3 3 3 5 6 5 5 6 6 5 6 7 4 4 4 5 5 6 8 8 8 9 8 6 7 7 9 8 9 8 9 9 9 8 9 9 10 9 9 8 8 7 7 8 8 8 8 8 8 8 6 4 5 5 5 5 6 6 7 5 4 5 5 3 3 0 4 3 4 6 6 5 4 4 5 6 6 6 5
2 2 2 2 2 3 2 2 4 5 5 5 5 5 6 6 6 6 4 5 6 5 6 7 7 7 8 7 7 7 7 7 8 8 8 8 10 10 9 9 9 10 9 9 9 8 8 7 8 8 8 8 9 9 10 9 10 8 5 5 6 7 7 9 9 8 5 7 7 7 1 1 4 3 5 9 6 5 5 5 5 6 7 6 6
4 3 2 2 2 3 2 3 3 4 4 5 4 5 6 6 6 5 5 5 6 6 6 8 8 8 9 8 8 9 8 8 8 7 8 9 9 10 9 9 9 9 10 9 8 8 8 8 8 8 9 8 8 9 10 10 9 9 9 6 4 6 7 8 9 9 6 7 4 4 3 5 4 3 7 10 4 5 5 6 5 7 8 7 7
5 4 4 3 3 2 2 3 3 3 3 4 4 5 5 5 5 6 6 7 7 7 9 10 11 12 12 11 10 9 8 8 9 9 10 11 11 10 10 10 10 10 11 10 9 9 9 9 8 8 8 8 8 9 9 9 9 8 8 8 6 6 6 7 9 9 7 8 5 4 4 3 3 3 10 4 2 7 6 5 7 7 8 9 7
5 5 4 4 3 3 3 3 2 3 4 3 3 4 4 5 6 6 7 8 7 9 10 10 11 12 11 12 11 10 8 8 8 9 9 9 9 10 10 10 10 10 10 11 10 10 10 9 9 8 8 8 8 9 9 9 8 8 9 8 9 6 6 5 7 8 10 9 6 5 3 4 5 8 11 2 3 4 4 5 6 6 7 8 7
5 5 5 3 3 3 3 3 3 3 3 3 3 3 4 5 5 6 7 6 7 7 6 5 7 9 9 9 9 8 8 7 8 7 7 8 8 7 9 10 10 10 10 10 10 9 10 9 9 8 9 8 8 8 8 8 10 10 9 8 9 9 7 6 6 6 8 9 9 7 4 3 7 8 7 5 9 1 3 4 5 6 6 7 6
4 4 4 5 4 4 4 3 2 3 3 2 3 4 5 5 5 6 6 5 5 5 4 5 6 6 8 9 9 8 10 7 6 6 7 6 7 8 8 9 9 10 10 10 10 10 9 9 9 9 8 8 8 8 9 9 8 8 8 9 8 7 7 8 8 6 6 8 7 6 5 3 4 5 6 7 8 3 3 6 5 6 8 7 5
6 6 5 4 4 3 4 3 2 3 2 2 3 4 5 5 6 6 5 5 5 4 5 4 7 8 10 10 9 10 10 10 7 7 6 6 7 8 7 8 9 9 9 10 10 9 9 9 9 8 8 8 7 8 8 7 7 7 8 8 7 7 8 7 7 7 7 6 7 7 6 4 4 4 4 5 6 10 10 4 2 9 8 5 4
6 6 7 6 5 4 3 3 3 3 2 2 3 4 4 5 6 7 7 7 6 7 6 6 7 8 9 10 11 9 9 8 7 6 7 6 8 7 8 8 8 9 9 9 9 9 9 8 9 9 8 8 7 7 7 8 9 8 8 8 8 7 7 6 5 6 6 6 6 6 6 6 4 4 4 5 6 8 9 10 12 6 5 4 7
5 5 6 5 4 3 2 3 3 3 2 3 3 4 5 5 7 9 8 7 7 8 8 9 8 7 9 10 14 10 8 7 7 7 7 6 8 7 7 7 7 7 8 9 9 9 9 9 8 9 9 8 7 7 7 8 8 8 8 8 7 7 6 6 6 5 4 5 5 4 5 5 4 4 4 6 5 4 8 11 10 14 13 6 6
5 5 5 4 3 3 3 4 4 4 3 3 3 4 4 6 8 9 8 7 7 8 9 9 8 8 9 10 12 12 10 9 8 7 6 6 7 7 7 6 6 6 6 7 8 8 8 8 8 7 7 7 7 7 7 6 6 6 6 7 8 8 6 6 6 6 4 4 5 4 4 4 4 5 5 5 5 6 8 8 9 9 10 14 5
7 6 6 5 5 4 4 5 5 5 5 4 4 4 5 5 7 11 9 8 7 8 9 8 8 8 9 10 11 10 9 7 8 8 7 7 7 7 5 6 6 6 6 6 7 7 6 6 6 6 7 6 6 5 5 5 5 5 6 6 5 6 6 5 5 6 6 4 4 4 3 3 3 3 4 5 5 6 7 9 9 9 9 8 9
7 7 6 6 6 7 7 6 6 6 5 5 5 4 5 6 8 10 9 8 8 8 9 9 8 8 8 9 9 8 8 8 8 8 6 6 5 6 5 5 5 6 5 5 6 6 5 6 6 5 5 5 5 5 5 5 4 5 5 5 5 6 5 5 5 5 5 5 4 3 3 3 3 3 4 4 5 5 6 8 8 7 10 10 8
7 7 7 7 7 6 6 7 6 5 6 5 5 5 4 6 7 9 10 8 8 8 8 9 8 8 8 8 8 8 8 7 6 6 5 5 4 5 5 5 5 5 5 5 4 4 5 5 5 5 5 4 4 4 4 5 4 4 5 5 5 4 4 4 4 4 4 4 4 3 4 3 3 3 4 4 5 5 6 7 9 8 9 11 9
7 7 8 8 8 8 7 6 6 6 6 6 5 5 6 6 7 9 10 8 8 8 8 9 8 8 8 8 7 7 7 7 6 6 6 6 5 5 5 4 4 4 4 4 4 4 4 4 5 5 5 5 5 5 4 5 5 4 4 5 4 4 4 4 3 4 3 5 4 4 3 3 3 4 4 4 4 4 5 6 7 10 10 8 10
8 8 9 9 8 8 7 7 6 6 7 6 7 6 6 7 8 8 10 9 8 8 8 8 8 8 9 9 8 8 7 7 6 5 5 5 5 5 5 4 4 4 4 4 3 4 4 4 5 5 4 4 5 5 5 4 4 4 3 3 3 3 3 4 3 3 3 4 4 4 3 3 3 3 4 4 4 4 5 5 5 6 9 12 9
9 9 9 10 8 8 8 8 8 7 7 8 8 7 7 8 8 9 9 8 8 8 9 8 9 9 9 9 8 8 8 8 7 8 7 6 5 4 5 4 4 4 3 3 4 4 3 3 3 4 4 4 4 4 4 4 3 3 3 3 3 3 2 2 2 2 3 2 3 3 3 3 3 3 3 4 4 4 4 5 5 6 7 9 10
10 9 8 9 9 10 9 8 9 9 9 8 8 6 6 6 8 10 9 10 8 9 9 8 10 9 9 9 8 7 8 8 8 8 6 6 5 5 4 4 4 3 3 2 2 3 3 3 3 3 3 3 4 4 3 3 3 3 3 3 3 3 3 2 2 3 4 3 3 3 4 3 4 4 4 5 4 5 5 5 5 6 6 8 9
10 11 10 10 10 11 10 9 9 8 8 7 7 6 5 5 7 7 10 9 10 8 8 7 7 6 6 8 9 8 7 7 6 6 6 6 6 5 6 5 4 3 2 2 2 2 2 3 3 3 3 3 4 4 4 4 4 3 3 3 3 4 4 4 3 3 4 4 4 4 4 4 4 4 5 4 4 4 5 5 6 6 6 8 9
12 11 10 10 11 10 10 9 9 9 9 8 8 7 8 7 7 7 7 8 8 9 8 9 7 7 8 8 7 7 7 7 7 6 6 6 6 6 6 5 4 3 3 2 3 3 3 4 3 4 4 4 4 4 4 4 4 4 4 4 4 4 4 4 3 3 3 4 5 5 5 4 5 5 5 4 5 5 5 5 6 6 7 7 8
12 10 9 10 10 9 8 8 8 8 7 7 7 8 8 7 8 8 10 10 10 9 8 8 8 9 10 10 9 8 8 7 7 6 7 6 5 5 4 4 4 3 2 2 3 3 4 4 4 4 5 4 5 5 4 4 4 4 3 3 4 4 4 4 4 5 4 4 5 5 5 5 5 5 5 5 5 5 6 6 6 6 7 7 7
10 8 8 8 8 8 8 7 7 7 8 9 8 8 8 9 8 9 8 9 10 9 9 9 8 8 10 10 10 8 8 7 7 7 6 6 5 4 4 4 4 3 3 3 3 3 3 4 4 4 3 3 3 4 4 3 4 4 4 3 4 5 5 5 5 5 5 4 5 6 6 6 5 5 6 6 6 6 6 6 6 6 7 8 7
9 9 8 8 8 8 8 9 10 10 10 10 10 9 10 10 10 9 9 9 9 9 8 8 9 9 10 9 9 8 8 8 7 6 7 6 5 4 3 3 3 3 2 2 2 2 2 2 2 2 2 2 3 3 3 3 4 4 5 4 4 5 5 6 6 6 6 6 6 6 6 6 4 6 7 6 6 7 6 7 8 7 9 9 9
8 7 7 8 8 8 9 11 11 11 12 12 10 10 9 9 10 9 10 10 9 8 8 9 8 9 9 9 9 8 9 8 8 6 7 6 5 4 3 3 3 2 2 2 2 1 1 1 1 1 1 2 2 3 3 3 4 4 5 5 5 5 5 6 6 7 7 6 7 7 6 6 6 7 7 6 6 6 7 7 8 8 8 10 9
11 12 12 11 10 12 12 11 11 11 10 11 12 11 11 11 10 10 9 10 9 8 8 8 8 9 9 9 10 10 10 9 8 7 7 7 5 4 3 3 2 2 2 1 1 1 1 1 0 0 1 1 2 2 3 3 3 4 5 5 5 5 6 6 7 7 7 7 7 7 7 7 7 7 7 6 6 8 8 8 8 8 8 9 8
13 12 12 14 14 12 11 11 11 11 12 12 12 12 11 11 11 9 9 9 8 7 7 8 7 8 9 9 9 9 9 9 8 8 8 6 5 4 4 3 2 2 2 1 1 0 0 1 1 2 2 2 2 3 3 4 4 4 5 5 5 6 6 7 7 7 7 7 7 7 7 7 7 7 7 7 8 9 8 9 9 9 9 9 10
13 14 12 9 9 14 15 13 11 12 12 11 12 12 12 11 11 10 9 9 9 9 9 9 10 9 8 9 8 8 8 8 7 7 7 6 5 5 4 3 2 2 1 1 1 1 2 2 2 2 2 2 3 3 3 4 4 4 5 5 6 6 7 6 7 7 7 7 7 7 7 7 7 7 8 8 8 9 8 10 9 9 9 9 10
9 10 12 15 15 12 12 14 13 12 11 11 11 12 12 12 12 11 10 9 8 11 11 11 10 9 9 9 8 7 7 7 7 7 6 6 5 5 4 3 3 2 2 1 2 2 2 2 3 2 2 2 3 3 4 4 4 4 5 6 6 6 7 7 7 7 7 7 7 8 8 8 8 7 7 8 8 8 8 10 9 9 9 10 10
13 15 14 14 13 13 13 12 12 12 13 13 12 11 10 9 10 11 11 12 11 11 12 12 11 10 9 8 7 5 5 6 7 7 6 6 6 5 4 4 3 2 1 2 1 2 3 3 3 3 2 2 3 3 3 3 4 5 5 6 6 7 7 8 8 7 7 7 7 7 8 7 8 9 12 13 13 12 11 10 9 9 10 10 10
13 14 13 11 11 9 10 11 11 14 14 14 12 11 12 13 13 13 12 11 10 11 12 11 10 9 7 8 7 5 6 7 7 7 7 7 6 5 5 4 4 3 2 2 2 3 4 4 4 4 3 3 3 3 4 7 8 6 7 7 7 7 8 8 8 8 8 7 8 7 7 10 11 13 14 15 15 15 16 13 12 11 10 10 11
11 11 12 11 10 9 10 12 13 14 14 14 13 13 13 14 14 14 13 12 11 11 10 10 11 9 8 7 7 7 7 8 7 7 5 6 6 5 4 4 4 3 3 3 2 4 4 4 4 4 4 3 3 4 7 9 9 10 8 7 7 8 8 8 8 8 8 8 7 8 8 8 9 11 11 13 14 15 15 17 18 18 15 13 12
10 10 9 10 10 11 11 13 13 13 14 13 13 13 14 15 13 12 11 9 9 9 11 11 10 9 9 8 7 7 8 8 7 6 6 5 5 5 4 4 4 4 3 3 3 4 4 4 4 4 4 4 4 6 9 9 10 10 10 8 7 7 7 7 8 8 8 8 8 8 7 7 7 8 9 10 12 14 15 16 17 16 16 16 16
8 9 10 10 11 12 13 13 13 14 14 16 14 12 13 12 11 10 8 10 11 11 11 11 9 9 9 8 8 7 7 6 6 6 6 5 5 5 5 5 4 4 3 4 4 4 4 4 4 5 4 4 5 6 8 9 10 11 11 10 7 7 8 8 8 9 9 8 8 8 8 7 7 11 10 10 10 11 13 15 15 16 16 16 15
6 7 8 9 8 9 10 12 11 11 11 10 10 11 10 9 9 9 11 11 11 11 11 11 9 9 9 9 8 6 7 6 6 6 6 6 6 5 5 4 4 4 4 4 4 4 4 4 5 5 4 4 6 6 9 10 10 11 11 10 8 8 8 9 9 9 8 8 8 8 9 9 8 9 9 10 10 10 11 11 11 11 11 13 16
7 7 8 8 8 8 7 8 9 10 8 8 8 9 7 7 9 9 10 10 10 11 10 10 9 9 8 6 8 7 7 6 6 6 6 6 5 5 5 4 4 4 4 4 4 5 4 4 5 4 4 5 5 9 10 11 11 11 11 10 8 8 7 8 8 9 9 9 9 9 10 10 10 10 9 10 12 13 13 12 12 13 14 15 15
8 9 8 8 9 10 10 9 6 7 7 8 9 8 9 9 8 9 9 10 9 8 10 8 8 7 8 8 7 7 7 7 7 7 7 6 5 5 5 4 4 3 3 3 3 3 4 5 5 4 5 5 6 9 10 11 11 11 11 7 6 7 7 8 9 9 9 9 9 10 10 10 11 11 13 18 16 14 14 14 14 14 14 14 14
4 5 5 5 5 6 6 5 6 7 8 8 8 8 9 8 8 8 8 7 7 8 9 9 8 9 9 9 9 8 8 8 7 7 6 6 6 5 5 4 4 4 4 4 4 4 4 5 5 5 5 5 6 8 10 11 11 11 8 5 6 6 7 8 8 9 9 9 10 10 11 11 13 14 16 19 20 20 15 14 14 14 12 12 13
2 2 2 3 4 4 4 6 7 8 7 7 8 9 9 8 8 7 7 8 7 10 10 9 10 8 9 9 9 8 8 8 8 9 8 6 5 4 5 4 5 4 4 4 4 4 4 5 5 5 5 5 6 8 10 12 12 11 9 7 6 6 7 7 8 9 8 9 10 15 14 13 14 15 19 21 22 18 14 14 15 16 18 16 16
4 5 6 6 5 5 6 5 6 7 7 8 8 9 8 9 8 8 8 7 10 10 10 10 11 9 8 8 6 7 8 9 9 8 7 7 6 5 4 4 3 3 3 3 4 4 4 4 5 5 7 7 7 7 11 12 12 10 8 6 6 6 7 7 7 8 8 9 10 11 17 17 16 18 23 21 22 19 15 14 16 16 16 17 13
4 3 2 5 7 7 5 6 7 8 8 9 9 8 8 9 8 8 8 8 10 11 11 9 7 6 6 5 6 12 11 14 12 9 6 5 4 5 5 5 4 3 4 4 4 4 5 4 4 5 6 6 6 6 8 12 11 11 11 7 6 6 7 8 8 8 9 10 11 11 12 14 16 18 20 23 23 24 18 17 16 15 16 15 15
5 5 6 5 6 7 8 10 8 7 8 8 8 7 7 7 7 9 10 11 11 8 6 7 6 5 6 7 6 9 12 11 8 9 6 5 4 5 5 5 4 4 4 4 4 4 4 5 5 5 5 6 6 6 7 10 11 11 11 10 6 7 7 8 8 9 9 9 8 9 10 14 18 20 21 24 25 26 25 19 16 15 14 17 20
3 5 6 4 5 6 5 3 3 5 7 8 7 11 7 8 6 8 11 9 5 6 6 6 6 6 7 8 9 7 8 8 7 6 6 5 4 4 4 5 4 4 5 5 4 4 4 4 4 4 5 6 6 8 6 9 11 12 12 12 8 8 8 8 9 9 10 10 11 11 11 14 20 22 24 25 27 26 26 14 13 20 27 29 22
5 4 6 6 5 7 8 8 6 6 7 6 10 12 9 8 9 16 8 5 5 6 5 6 6 9 11 11 9 10 9 6 7 5 6 6 5 4 4 4 4 4 4 4 5 4 4 4 3 4 4 5 5 5 9 8 11 12 12 12 13 11 13 9 9 10 10 11 10 11 12 18 21 24 26 25 21 23 18 14 26 30 29 29 24
5 4 7 7 7 6 7 7 6 6 5 6 11 10 9 10 16 7 6 4 5 5 6 9 10 10 11 8 10 8 6 5 6 6 5 5 5 5 4 4 4 4 4 4 4 4 3 4 3 3 3 3 4 4 6 9 9 12 12 13 13 13 13 9 9 10 10 11 11 11 13 22 25 22 20 21 24 23 17 26 27 26 26 23 14
7 7 7 7 9 9 8 7 6 7 6 7 8 11 11 12 11 7 9 10 10 10 11 12 11 10 10 7 6 5 6 5 5 6 7 6 5 5 5 4 4 4 4 4 3 3 3 3 3 3 3 3 3 4 4 7 11 12 12 12 12 12 12 14 10 9 10 10 15 21 23 20 18 21 24 23 18 18 19 20 21 21 19 10 9
2 3 7 7 6 4 4 7 8 7 7 6 9 9 12 14 6 8 8 12 11 12 11 13 11 8 8 8 8 6 5 5 6 5 5 5 6 6 5 4 4 4 4 4 3 2 3 3 3 2 2 2 3 3 5 6 7 9 9 10 11 12 12 12 13 12 17 19 18 18 18 17 17 16 14 11 11 11 17 17 16 14 8 8 8
8 10 6 5 6 8 9 10 10 8 9 7 11 10 11 4 6 7 10 12 11 12 13 10 10 7 7 7 8 7 6 6 6 5 5 5 5 5 5 4 4 4 4 3 3 3 3 3 3 2 2 3 4 4 5 6 6 6 7 8 7 6 10 12 9 8 8 9 11 10 11 17 14 17 15 13 12 12 9 8 8 7 7 8 8
7 3 6 5 7 10 11 11 12 10 10 10 11 12 11 6 5 8 11 11 11 12 11 12 10 8 7 8 7 9 9 6 7 6 6 5 5 5 5 6 6 5 4 4 4 4 4 3 2 2 3 4 4 4 5 6 6 6 6 5 6 7 7 7 6 6 8 6 6 10 11 7 6 6 6 5 6 6 7 8 8 8 8 9 11
5 6 7 9 10 11 12 12 13 9 7 9 11 10 8 8 8 9 11 13 11 12 10 12 9 6 6 6 6 6 6 6 5 5 4 4 5 6 5 4 3 2 3 3 3 4 3 3 3 4 5 6 6 5 5 8 9 10 9 8 7 7 7 6 6 12 7 5 5 6 5 5 5 6 6 6 6 7 7 7 8 8 8 8 9
5 3 6 8 8 10 11 12 12 7 7 9 10 9 7 8 8 10 10 12 11 9 9 9 7 7 6 6 5 5 5 4 5 5 4 4 5 8 6 5 4 7 12 12 10 6 5 4 6 6 6 8 7 7 12 15 14 13 13 14 13 14 12 9 10 10 5 4 4 5 4 5 5 5 6 7 8 8 9 10 8 10 9 8 9
5 6 7 9 10 10 9 10 11 7 8 8 8 7 7 8 9 10 10 11 9 8 6 5 6 7 8 6 6 5 5 4 4 4 4 4 3 5 12 15 12 10 10 12 14 16 16 15 9 6 7 13 14 15 15 14 14 14 14 14 13 11 11 8 9 5 3 3 3 4 4 4 4 5 7 7 7 8 9 9 10 11 9 9 9
Wind_Direction
50 37 43 36 34 28 19 21 44 65 53 50 60 57 54 63 82 75 54 52 89 93 88 97 96 93 78 70 69 55 54 56 53 44 45 43 37 40 39 38 35 35 35 41 51 58 57 54 53 51 54 55 57 54 49 47 42 44 64 56 47 52 42 18 4 313 331 336 336 318 315 285 81 84 81 22 9 24 34 31 35 39 30 22 15
165 128 86 74 53 44 43 46 37 77 51 53 61 59 63 65 72 77 65 64 65 73 86 77 68 74 88 78 76 60 54 54 56 47 47 44 41 40 42 39 39 41 36 41 48 53 58 58 52 49 51 56 55 51 43 41 36 32 18 71 52 48 47 20 11 350 16 352 333 331 268 351 91 94 38 4 21 37 20 38 38 37 27 16 6
151 130 117 108 80 60 59 53 59 61 66 66 64 79 73 75 74 76 73 78 69 74 83 86 85 83 90 90 85 81 66 64 66 60 53 53 46 43 41 40 40 41 39 38 40 43 52 57 54 52 49 52 58 53 46 43 35 33 31 27 58 61 63 37 28 22 4 336 294 298 358 347 139 112 5 354 52 21 30 50 34 17 21 12 354
166 155 147 124 95 88 75 65 58 64 77 77 68 75 74 73 76 81 80 80 79 75 86 87 91 93 89 92 88 85 86 77 73 61 54 50 47 42 41 39 40 44 39 40 44 43 46 53 56 55 54 53 59 60 51 45 37 33 33 34 30 63 51 52 37 32 25 356 11 340 315 319 335 29 347 333 76 13 42 37 18 8 11 359 352
160 159 150 141 129 92 71 60 56 69 64 54 48 64 75 79 80 84 84 85 89 95 97 104 105 101 102 101 102 100 88 77 69 58 54 56 55 44 39 40 44 46 44 42 44 45 43 46 51 53 55 52 58 61 56 46 41 37 33 42 35 41 56 58 51 41 39 27 14 359 355 353 19 333 329 81 23 3 48 7 14 14 4 356 351
168 161 152 139 125 116 102 85 70 73 66 41 39 59 82 92 92 92 90 89 92 96 108 120 117 120 126 121 111 97 83 68 61 65 59 56 57 56 48 44 46 48 47 46 45 46 47 44 46 51 53 52 54 60 58 52 41 37 29 32 38 33 49 54 60 59 49 42 42 51 27 2 337 328 344 331 336 58 355 349 5 3 360 349 345
166 154 151 154 140 132 116 90 74 76 61 51 61 69 80 85 85 86 91 89 75 85 81 103 98 92 90 91 95 99 102 85 86 80 82 76 70 63 59 48 44 50 47 46 46 44 46 42 43 46 49 52 51 57 56 52 44 35 28 35 31 26 32 53 40 32 57 46 40 50 50 42 2 356 3 330 336 337 330 338 346 350 349 335 336
168 163 157 142 141 141 125 103 89 75 71 79 81 79 83 88 93 91 89 88 82 88 80 85 102 101 101 98 93 95 97 105 97 88 83 84 81 72 68 58 49 47 49 45 44 44 44 45 41 44 46 44 46 51 52 48 52 46 39 37 38 36 32 42 40 27 30 27 20 29 30 37 40 45 22 355 325 321 323 333 345 339 340 336 348
167 161 158 155 150 141 131 122 96 95 78 80 88 90 94 98 99 98 95 93 88 89 95 89 96 102 103 108 102 97 103 104 102 98 92 87 85 76 72 69 62 53 49 48 43 43 43 44 42 42 41 38 39 46 47 48 48 45 38 37 38 39 39 30 40 38 29 22 7 17 13 11 4 17 9 360 343 325 317 332 324 328 323 332 333
162 152 145 142 139 134 117 115 117 92 91 98 106 112 113 112 107 104 98 96 98 99 101 99 97 102 107 109 112 114 114 111 108 102 96 90 83 77 73 69 64 60 52 47 48 44 43 44 44 41 39 36 34 35 36 39 40 42 42 40 33 41 37 36 36 28 37 30 21 6 13 3 1 2 3 352 332 311 308 320 321 326 326 323 318
163 154 145 136 122 129 147 145 128 121 117 123 118 122 120 115 114 103 101 103 104 103 105 103 103 107 109 114 115 119 118 118 115 105 101 95 89 81 77 73 67 64 59 52 48 45 46 44 46 45 43 41 37 35 33 33 33 38 39 42 41 35 29 26 34 28 12 33 21 18 15 9 357 346 339 342 327 316 315 306 311 309 307 311 313
159 156 155 149 149 157 165 151 148 138 134 131 130 125 120 115 116 110 106 107 106 106 108 108 107 105 107 111 112 114 118 117 112 108 104 101 97 95 91 85 74 68 60 56 47 41 47 48 47 50 47 43 44 41 38 34 37 41 42 40 37 36 29 29 29 27 18 17 23 11 8 356 349 347 337 325 321 318 310 303 307 312 303 284 305
165 165 161 168 174 172 175 158 149 154 149 143 138 129 123 118 121 117 112 113 112 116 116 115 112 109 110 108 105 103 101 103 106 107 108 105 102 98 93 85 78 68 57 60 49 43 48 51 48 47 48 45 44 45 42 37 41 50 48 49 45 37 32 28 34 23 19 12 2 358 360 357 353 352 330 321 318 310 306 305 308 314 304 305 306
172 168 171 178 178 176 173 163 163 155 153 149 146 142 135 128 128 121 119 121 122 120 120 116 108 108 105 104 104 105 102 102 102 102 96 91 89 87 84 83 84 80 71 65 52 53 60 61 62 62 58 53 48 47 45 40 39 53 51 47 43 38 31 31 39 20 20 11 358 350 359 348 352 349 335 329 330 327 320 322 315 313 306 306 310
172 174 181 183 180 177 172 169 165 164 160 157 158 153 146 136 135 130 126 129 129 125 122 115 110 106 104 102 105 107 107 105 101 100 100 99 91 93 89 88 90 87 80 74 64 64 64 63 57 57 50 45 39 37 33 35 31 39 44 40 37 26 18 20 25 17 11 5 4 359 335 343 350 345 340 332 334 324 320 318 321 317 313 301 305
177 182 186 186 181 176 175 173 171 167 168 167 164 160 156 148 141 136 132 135 135 130 124 120 115 112 109 109 109 108 107 107 106 103 103 106 107 104 102 97 92 92 87 84 70 65 62 65 64 60 55 49 45 40 35 36 29 41 48 44 46 26 16 24 10 7 9 356 358 348 334 337 342 340 331 326 325 323 311 309 309 303 309 312 313
178 187 189 183 175 182 184 178 175 173 174 175 171 170 163 151 144 137 135 136 137 132 126 123 121 119 118 118 121 122 121 120 121 123 121 119 115 110 102 98 98 89 88 76 66 64 62 63 73 66 56 52 50 47 38 31 19 38 35 34 30 15 360 14 359 355 342 334 342 339 331 323 326 330 316 317 320 309 306 302 296 296 301 296 306
183 188 187 181 182 187 185 182 180 179 175 170 168 166 162 159 154 144 146 144 144 136 132 132 130 125 128 127 125 123 122 125 128 131 131 126 123 117 118 106 86 83 88 92 99 95 84 68 65 64 56 48 43 36 29 21 10 26 23 30 25 357 349 354 354 350 343 338 327 326 320 318 323 319 313 309 304 303 297 296 292 289 282 280 290
186 191 188 185 190 192 187 181 175 176 172 167 163 162 164 163 158 156 151 150 145 141 137 136 136 132 134 134 133 130 128 127 129 130 131 128 121 114 107 105 111 119 123 124 114 85 73 69 64 52 48 41 37 33 19 17 11 16 10 13 18 359 349 344 346 343 333 330 327 322 320 314 322 315 308 301 296 291 293 292 289 282 275 271 277
192 192 189 186 191 189 181 177 174 176 174 170 165 165 170 168 164 157 146 144 145 144 145 143 142 137 135 133 134 133 133 135 137 139 133 124 119 120 126 133 137 139 115 102 82 73 62 55 51 46 37 36 27 25 17 11 4 14 1 1 357 348 341 332 333 331 319 316 315 314 312 312 316 312 305 302 298 292 287 286 283 279 276 270 270
192 191 183 181 184 182 176 176 176 175 173 168 168 173 173 171 174 166 160 157 156 155 152 148 147 146 143 143 144 143 142 140 141 136 126 127 137 144 138 132 125 94 90 82 71 61 54 49 44 39 31 22 19 10 10 359 359 357 349 345 336 335 330 324 322 315 310 307 305 305 303 303 305 304 304 305 299 295 291 285 281 281 275 272 273
192 179 163 172 181 177 170 173 176 170 172 175 175 177 179 183 178 173 170 169 164 164 161 155 155 153 152 148 148 147 147 148 145 142 139 144 145 132 126 118 96 84 72 64 64 59 52 45 45 36 29 21 9 4 358 351 347 340 336 338 327 331 323 321 319 313 315 311 306 302 303 305 307 301 302 299 299 299 297 290 287 285 281 281 274
179 166 172 179 181 178 180 182 181 180 177 180 182 186 186 186 182 183 177 175 172 166 162 162 160 159 157 153 150 152 153 153 148 147 144 136 126 116 109 98 92 98 88 71 64 65 59 59 55 47 29 18 359 352 350 342 333 329 322 321 320 318 317 314 313 309 311 309 305 304 304 308 308 305 303 300 298 295 293 292 291 290 288 287 285
155 162 170 178 181 178 180 186 186 186 183 183 182 187 190 189 188 184 184 175 173 171 169 168 166 163 157 154 156 156 157 158 154 146 139 128 123 113 106 108 114 111 114 96 76 65 73 56 62 57 27 358 343 332 325 318 313 309 306 304 305 302 298 296 294 298 302 303 301 302 300 309 307 300 300 301 296 294 297 295 292 290 288 287 288
178 182 184 180 183 190 195 189 185 182 178 179 184 191 190 192 189 187 185 178 175 175 175 173 169 163 164 165 165 165 163 161 151 144 138 128 123 126 124 126 134 134 127 131 115 70 40 51 356 293 298 281 288 294 289 285 283 282 284 285 286 288 286 284 283 284 288 288 289 288 296 300 301 297 297 296 299 299 294 293 289 292 289 291 290
186 184 178 188 194 193 190 188 184 182 181 183 186 190 192 191 192 188 184 178 179 168 172 171 172 170 175 177 172 170 165 159 151 141 135 131 133 136 141 140 139 143 135 126 100 39 271 272 244 247 252 263 266 274 276 277 281 282 282 282 281 280 279 279 278 277 277 281 282 285 287 288 288 290 290 292 292 291 292 287 287 287 290 290 290
189 188 190 182 184 197 197 187 184 182 182 184 186 188 190 190 190 189 190 182 177 173 179 182 183 186 185 183 180 176 167 160 151 138 134 139 143 144 152 151 144 139 147 174 183 224 250 246 257 241 258 261 274 275 276 280 282 282 281 281 281 277 278 277 275 274 275 275 276 277 279 280 280 282 286 287 290 290 287 287 288 290 291 291 290
189 191 192 198 202 195 189 189 183 184 185 187 188 189 188 189 189 189 191 186 180 178 182 187 188 190 189 188 187 181 169 157 141 135 141 146 147 152 157 152 147 157 157 193 222 234 249 246 254 254 259 268 274 276 277 279 281 281 281 278 279 281 282 281 279 278 275 271 270 272 272 273 273 274 282 288 290 292 294 292 292 293 293 293 293
197 204 204 204 199 192 188 185 186 182 188 191 189 188 185 189 193 192 191 192 183 180 184 187 189 193 193 188 183 174 166 144 138 142 151 157 158 158 159 154 151 151 159 196 225 242 251 249 248 252 252 262 268 272 272 284 290 288 287 289 285 282 283 283 282 281 279 275 271 270 270 269 270 275 276 279 281 282 290 291 290 291 293 292 290
204 207 208 207 203 193 187 185 187 191 192 191 188 188 192 194 199 198 192 190 176 188 187 184 185 192 187 183 179 169 166 150 151 160 164 164 162 163 164 158 153 158 178 207 222 250 248 254 253 248 242 245 255 257 263 270 275 284 292 289 287 284 284 281 284 285 280 275 273 272 273 270 270 272 274 276 276 277 280 278 283 286 287 289 289
209 211 208 200 196 190 183 188 191 191 192 190 192 192 194 200 202 198 194 186 179 183 186 184 191 192 184 178 176 176 170 166 164 164 163 162 164 162 164 158 154 164 189 205 228 234 239 245 244 246 244 242 247 252 262 274 281 283 285 285 283 283 280 280 277 280 283 284 279 279 280 279 274 270 270 270 274 275 280 283 281 280 280 282 288
206 208 206 206 200 194 193 196 196 194 192 192 194 196 197 204 199 196 189 170 176 183 189 196 196 187 182 177 183 176 175 171 162 167 162 163 156 158 165 162 165 174 196 199 224 234 238 244 244 245 243 244 255 258 269 279 284 283 281 284 283 280 280 277 279 278 281 283 286 287 285 283 277 275 280 283 279 279 281 281 283 283 281 279 277
195 197 202 202 200 199 198 197 193 193 194 198 194 192 200 198 192 188 162 171 186 191 196 199 194 186 181 183 186 181 179 169 170 162 160 155 160 167 167 168 177 176 180 207 222 224 231 238 246 247 247 250 256 263 274 281 283 283 283 285 281 277 278 276 277 278 279 281 286 287 287 280 280 278 274 275 279 284 284 281 283 283 280 275 274
191 195 195 199 199 203 203 202 199 198 199 195 193 199 200 192 186 177 177 181 185 195 198 201 194 190 186 186 186 177 179 175 164 159 164 169 171 182 175 169 160 171 193 212 219 221 233 235 241 249 251 250 261 265 276 281 284 285 286 286 279 279 276 274 274 277 279 280 282 285 287 285 283 283 281 282 284 286 291 293 289 285 279 273 269
197 198 202 200 198 195 197 201 205 199 189 183 194 196 187 176 177 180 183 182 191 195 200 201 196 191 185 185 182 184 184 171 165 166 168 175 175 172 164 173 172 184 193 206 214 217 224 230 239 244 251 256 258 269 279 285 287 287 287 288 280 277 274 273 273 275 277 279 279 280 281 282 283 283 281 283 290 291 292 287 279 269 264 264 265
198 192 195 188 191 193 193 198 179 168 181 187 192 184 183 186 179 181 181 187 188 195 203 198 195 189 188 189 180 185 181 170 172 173 176 180 175 175 173 171 168 185 196 204 224 216 222 225 232 237 246 251 259 269 281 284 284 285 289 287 277 272 272 270 268 268 270 273 280 281 281 281 282 283 283 287 285 286 286 283 279 269 262 260 257
176 186 194 183 179 179 179 151 165 175 177 186 174 169 175 170 173 184 176 183 185 197 203 200 203 196 190 187 185 184 179 174 173 172 180 180 171 173 174 166 173 194 194 205 204 213 217 223 228 231 244 257 262 271 278 280 283 285 290 276 270 267 265 266 269 272 275 273 274 274 278 283 286 284 284 285 288 289 288 281 277 276 273 267 259
142 139 124 157 160 146 152 166 170 178 179 166 164 165 169 169 177 173 173 182 187 203 204 197 202 197 190 187 187 179 171 173 172 184 178 179 171 172 172 174 183 188 205 201 205 214 220 223 223 230 235 252 259 265 272 280 282 281 277 273 269 267 269 268 275 271 271 274 275 274 273 278 281 282 283 286 287 291 288 288 286 284 282 275 275
180 182 182 169 159 158 158 159 162 173 176 166 162 161 162 176 175 172 177 181 198 205 199 198 205 196 184 177 176 174 177 175 180 183 169 171 175 174 161 164 185 194 207 199 209 221 219 227 221 230 241 248 260 264 272 278 279 277 276 266 263 268 269 272 277 280 277 274 277 276 276 276 277 281 285 287 291 293 291 287 284 282 278 276 273
190 203 146 121 131 131 147 170 186 193 164 162 160 164 176 177 177 168 179 197 204 203 201 198 185 165 168 169 176 175 178 173 178 158 163 170 151 151 169 177 185 195 203 203 208 220 219 231 221 223 231 241 251 256 263 275 279 278 275 271 267 263 269 276 277 278 281 277 273 273 279 281 282 285 288 291 293 294 292 288 282 277 281 282 288
175 166 145 144 165 176 178 187 196 170 155 163 159 159 177 187 169 175 200 207 206 192 176 175 164 159 166 167 171 177 177 175 159 160 155 149 165 171 166 177 183 201 203 212 212 226 230 232 221 225 233 242 237 251 263 273 280 279 277 272 264 261 266 273 276 273 268 269 277 285 290 288 290 291 292 294 295 294 291 288 288 286 284 292 303
83 134 161 161 175 197 203 197 170 152 159 161 164 174 187 168 170 200 210 204 168 158 163 156 160 167 160 157 159 156 148 152 143 143 150 162 169 161 167 174 195 199 201 217 219 227 230 233 231 225 234 242 245 250 263 274 278 277 275 269 263 263 262 271 276 277 284 288 288 289 289 290 291 293 295 296 296 298 305 313 307 306 306 307 307
154 165 200 180 175 196 204 199 170 161 170 168 171 181 186 177 188 213 197 145 157 151 154 157 156 153 158 156 159 155 150 147 148 155 144 161 157 164 173 177 195 203 212 224 226 225 230 236 233 232 223 226 241 253 262 268 271 275 277 275 271 272 276 278 281 284 283 285 287 289 291 292 293 295 297 304 315 322 322 310 307 304 303 304 306
199 189 173 183 202 200 203 196 164 167 172 171 176 186 186 185 214 200 122 133 141 151 147 151 157 158 151 162 157 150 143 151 150 154 162 156 170 168 176 196 194 206 219 222 231 212 222 229 234 234 225 224 233 241 255 264 276 275 276 279 281 282 281 277 274 277 285 288 292 292 290 293 298 309 320 322 319 318 312 307 303 304 305 309 307
185 198 169 181 205 205 205 195 187 171 186 186 195 190 189 202 215 148 161 158 153 141 152 152 165 163 165 158 150 158 157 157 156 158 165 176 170 167 189 197 191 214 221 231 239 221 238 251 251 249 253 248 242 242 249 261 268 276 282 284 283 282 282 284 285 283 282 284 287 292 299 310 323 324 319 317 313 308 308 308 308 309 313 311 310
172 173 185 200 207 229 223 221 206 182 191 192 198 201 196 218 171 169 161 146 150 155 166 176 163 168 167 149 153 153 161 163 166 179 185 182 172 179 197 190 192 211 211 221 240 227 236 245 248 255 253 262 260 258 273 274 270 271 275 281 291 292 291 287 285 286 287 292 300 309 317 323 320 317 315 312 309 310 312 313 314 315 312 310 310
194 210 178 176 191 211 221 222 225 197 192 200 204 213 222 206 165 153 150 148 160 165 168 165 176 170 160 165 166 171 169 169 181 182 190 190 189 189 196 203 201 207 208 213 225 226 240 241 251 255 259 255 272 279 282 283 275 271 272 269 274 290 298 293 288 288 306 312 309 315 317 312 312 313 311 308 308 313 314 314 315 314 313 309 307
213 185 182 194 194 210 220 220 228 217 188 201 205 217 222 202 156 153 146 153 169 182 182 180 175 168 170 177 182 174 170 172 183 181 182 186 192 195 199 206 201 201 200 214 205 218 225 240 256 265 267 280 272 267 276 281 278 268 270 291 302 301 291 291 301 315 311 325 328 315 313 313 311 312 311 310 309 310 311 316 317 317 311 306 300
190 204 192 203 206 213 222 221 229 224 195 202 216 224 216 196 167 151 163 174 186 192 192 173 170 168 179 172 179 165 185 174 167 181 207 195 185 190 203 223 225 217 224 218 222 231 220 224 230 236 263 274 273 264 263 271 263 281 300 302 299 291 294 304 324 320 330 334 316 311 310 315 318 316 317 316 317 318 318 314 312 315 314 309 307
213 185 200 220 224 220 223 226 235 223 204 210 217 217 204 179 163 164 170 186 192 176 180 179 176 180 171 168 183 178 177 175 171 182 190 234 246 226 216 212 224 219 227 235 229 228 220 217 241 233 224 256 262 269 270 268 283 298 296 293 289 291 300 310 320 339 3 319 311 303 305 314 317 319 317 321 322 323 323 324 318 318 312 306 302
208 204 218 218 225 225 231 239 239 223 216 217 220 211 191 181 174 172 184 196 183 180 190 181 170 196 180 171 167 166 171 180 177 178 182 196 205 223 229 230 229 228 232 237 241 246 247 237 229 244 237 242 261 271 280 295 296 291 292 291 292 299 304 324 332 358 333 308 303 300 303 305 305 313 314 312 311 317 321 318 318 316 308 304 302